SCP
0 0 0 0 0 0 0 0 0 0 0 0 0 0 0 0 0 0 0 0 0 0 0 0 0 0 0 0 0 0 0 0 0 0 0 0 0 0
0 0 0 0 0 0 0 0 0 0 0 0 0 0 0 0 0 0 0 0 0 0 0 0 0 0 0 0 0 0 0 0 0 0 0 0 0 0
0 0 0 0 0 0 0 0 0 0 0 0 0 0 0 0 0 0 0 0 0 0 0 0 0 0 0 0 0 0 0 0 0 0 0 0 0 0
0 0 0 0 0 0 0 0 0 0 0 0 0 0 0 0 0 0 0 0 0 0 0 0 0 0 0 0 0 0 0 0 0 0 0 0 0 0
0 0 0 0 0 0 0 0 0 0 0 0 0 0 0 0 0 0 0 0 0 0 0 0 0 0 0 0 0 0 0 0 0 0 0 0 0 0
0 0 0 0 0 0 0 0 0 0 0 0 0 0 0 0 0 0 0 0 0 0 0 0 0 0 0 0 0 0 0 0 0 0 0 0 0 0
0 0 0 0 0 0 0 0 0 0 0 0 0 0 0 0 0 0 0 0 0 0 0 0 0 0 0 0 0 0 0 0 0 0 0 0 0 0
0 0 0 0 0 0 0 0 0 0 0 0 0 0 0 0 0 0 0 0 0 0 0 0 0 0 0 0 0 0 0 0 0 0 0 0 0 0
0 0 0 0 0 0 0 0 0 0 0 0 0 0 0 0 0 0 0 0 0 0 0 0 0 0 0 0 0 0 0 0 0 0 0 0 0 0
0 0 0 0 0 0 0 0 0 0 0 0 0 0 0 0 0 0 0 0 0 0 0 0 0 0 0 0 0 0 0 0 0 0 0 0 0 0
0 0 0 0 0 0 0 0 0 0 0 0 0 0 0 0 0 0 0 0 0 0 0 0 0 0 0 0 0 0 0 0 0 0 0 0 0 0
0 0 0 0 0 0 0 0 0 0 0 0 0 0 0 0 0 0 0 0 0 0 0 0 0 0 0 0 0 0 0 0 0 0 0 0 0 0
0 0 0 0 0 0 0 0 0 0 0 0 0 0 0 0 0 0 0 0 0 0 0 0 0 0 0 0 0 0 0 0 0 0 0 0 0 0
0 0 0 0 0 0 0 0 0 0 0 0 0 0 0 0 0 0 0 0 0 0 0 0 0 0 0 0 0 0 0 0 0 0 0 0 0 0
0 0 0 0 0 0 0 0 0 0 0 0 0 0 0 0 0 0 0 0 0 0 0 0 0 0 0 0 0 0 0 0 0 0 0 0 0 0
0 0 0 0 0 0 0 0 0 0 0 0 0 0 0 0 0 0 0 0 0 0 0 0 0 0 0 0 0 0 0 0 0 0 0 0 0 0
0 0 0 0 0 0 0 0 0 0 0 0 0 0 0 0 0 0 0 0 0 0 0 0 0 0 0 0 0 0 0 0 0 0 0 0 0 0
0 0 0 0 0 0 0 0 0 0 0 0 0 0 0 0 0 0 0 0 0 0 0 0 0 0 0 0 0 0 0 0 0 0 0 0 0 0
0 0 0 0 0 0 0 0 0 0 0 0 0 0 0 0 0 0 0 0 0 0 0 0 0 0 0 0 0 0 0 0 0 0 0 0 0 0
0 0 0 0 0 0 0 0 0 0 0 0 0 0 0 0 0 0 0 0 0 0 0 0 0 0 0 0 0 0 0 0 0 0 0 0 0 0
0 0 0 0 0 0 0 0 0 0 0 0 0 0 0 0 0 0 0 0 0 0 0 0 0 0 0 0 0 0 0 0 0 0 0 0 0 0
0 0 0 0 0 0 0 0 0 0 0 0 0 0 0 0 0 0 0 0 0 0 0 0 0 0 0 0 0 0 0 0 0 0 0 0 0 0
0 0 0 0 0 0 0 0 0 0 0 0 0 0 0 0 0 0 0 0 0 0 0 0 0 0 0 0 0 0 0 0 0 0 0 0 0 0
Wind_Speed
4 5 4 4 4 4 4 4 4 5 6 4 3 3 3 4 4 5 6 6 7 7 7 7 7 8 8 8 9 9 9 9 9 10 11 12 11 11
4 4 5 4 3 3 4 4 5 6 6 4 4 4 4 4 5 6 5 6 7 8 8 7 7 8 8 9 9 9 9 9 10 10 11 11 11 11
5 5 5 5 4 4 4 4 5 5 7 5 4 5 6 6 5 5 5 5 5 7 8 8 8 9 9 9 9 10 10 10 10 11 12 11 11 11
6 6 6 4 6 5 4 5 5 6 6 7 5 5 6 6 6 6 4 4 5 6 8 8 9 9 9 9 10 10 10 10 10 11 11 11 10 10
6 6 6 6 7 5 6 6 5 5 5 6 6 5 5 4 5 5 5 4 4 4 6 8 9 9 10 10 10 10 10 10 10 10 10 10 10 11
6 6 7 7 8 7 6 6 6 6 6 6 6 5 5 4 4 4 4 4 4 4 5 6 7 9 10 10 10 10 10 10 10 9 9 10 10 10
6 7 7 8 9 7 6 6 6 6 5 6 6 5 5 4 4 4 5 4 5 4 4 4 4 5 6 8 9 9 9 9 9 9 10 10 10 11
6 7 7 8 9 10 11 10 9 8 7 6 6 7 7 6 5 4 4 4 5 3 4 4 4 5 5 5 6 8 9 9 9 9 10 10 11 11
6 6 6 6 8 8 8 10 10 12 11 9 9 9 8 6 6 6 6 6 6 3 4 5 4 5 4 4 7 8 9 9 9 9 9 10 11 11
6 7 7 7 7 7 7 8 8 8 9 8 9 9 7 6 6 7 6 5 4 3 3 4 4 5 4 4 7 8 9 9 9 10 10 10 10 11
6 7 7 8 9 9 8 7 7 7 7 9 9 8 8 8 6 4 3 3 4 4 3 3 3 4 4 4 4 7 8 9 10 10 10 10 10 10
5 6 8 9 10 9 8 7 8 6 6 5 6 6 6 6 6 5 5 5 4 3 3 2 3 2 3 3 3 4 5 7 9 10 10 10 10 7
5 5 5 9 10 10 9 7 8 6 5 5 4 4 3 3 3 4 4 5 5 4 3 2 2 3 3 3 4 4 4 4 5 6 8 9 9 7
6 5 5 9 10 10 8 8 7 5 3 3 3 3 3 3 3 3 3 3 4 5 4 4 3 3 3 4 4 3 4 4 4 5 5 6 8 9
6 7 8 9 9 8 8 7 5 4 3 4 4 3 3 3 2 2 2 2 3 3 3 4 4 4 4 5 4 4 4 4 4 4 4 4 4 4
5 6 8 8 7 7 5 4 4 3 3 4 3 3 2 2 2 2 2 2 2 3 2 3 4 4 4 5 5 5 4 4 4 4 5 5 4 4
4 4 4 4 4 3 3 3 3 3 3 2 2 3 2 2 2 2 2 2 3 3 3 2 2 3 5 5 5 5 5 5 4 4 4 5 5 4
5 4 4 4 4 4 4 3 3 3 3 3 3 3 3 3 2 2 2 3 3 3 3 2 2 2 3 4 6 5 5 5 4 4 4 5 6 4
4 4 4 4 4 4 4 4 3 3 3 3 3 3 3 2 2 3 3 3 3 3 3 2 2 3 4 5 3 4 4 4 4 4 4 4 5 5
4 4 4 4 4 4 4 3 3 3 3 3 3 3 3 3 3 3 3 3 3 3 3 3 3 3 4 5 4 4 5 5 4 5 4 4 4 5
4 4 4 4 4 4 3 3 3 3 3 3 3 3 3 3 3 3 3 4 3 3 3 3 3 4 3 2 3 3 3 4 5 5 4 3 3 3
4 4 4 4 4 3 3 3 3 3 3 3 3 2 3 3 3 3 3 3 3 3 3 2 1 2 2 3 4 4 4 4 4 5 5 5 3 2
4 3 3 3 3 3 3 3 3 3 3 3 2 2 2 2 2 2 2 2 2 2 2 2 1 2 2 3 3 3 3 4 3 3 3 3 3 4
Wind_Direction
241 240 241 245 248 251 252 248 255 268 266 258 254 252 263 264 267 260 263 256 256 257 257 259 265 271 274 276 276 276 275 275 275 274 275 276 275 273
239 241 245 249 248 250 251 253 251 258 269 273 272 286 284 273 268 264 264 264 252 250 252 254 259 264 266 269 272 275 273 273 273 273 273 273 274 272
240 240 243 249 250 250 249 250 252 254 262 274 276 279 280 276 272 267 265 261 254 247 252 256 259 261 263 266 268 271 271 272 272 273 273 272 273 272
242 242 244 244 247 250 249 250 250 250 258 269 276 277 276 273 274 272 269 263 260 254 252 257 259 261 263 265 267 267 265 267 269 270 271 271 269 271
243 244 245 244 244 243 246 248 252 254 255 261 269 275 277 272 274 272 267 264 264 260 258 256 258 261 263 262 265 266 265 266 265 265 266 268 268 269
245 245 244 244 246 247 245 247 252 255 255 258 263 270 274 271 268 266 268 262 260 260 260 263 263 261 258 259 263 263 262 262 261 261 263 265 267 268
251 249 248 249 253 253 251 249 249 249 252 254 259 266 267 259 255 261 264 271 267 254 257 258 262 261 256 253 253 255 258 260 263 265 266 266 266 267
254 255 251 246 249 252 251 251 249 247 248 251 256 258 261 261 259 256 258 266 269 247 257 264 258 260 262 260 254 258 261 263 264 266 266 266 266 267
258 259 257 255 253 251 253 253 252 251 250 252 254 256 258 255 253 250 249 257 265 266 266 267 263 264 265 257 257 260 262 266 265 264 265 269 269 268
255 259 263 262 256 257 258 257 256 252 251 250 255 258 258 258 252 254 259 269 280 269 255 265 266 270 273 261 249 253 261 266 266 265 265 269 273 272
258 259 262 264 265 264 257 257 261 264 261 260 266 267 263 257 256 251 245 251 266 266 252 258 269 285 278 262 254 256 263 266 269 266 265 268 273 276
262 262 261 267 272 268 259 256 259 264 268 265 262 262 257 244 240 236 235 242 259 259 232 244 257 281 280 267 267 270 264 263 270 269 269 271 272 274
262 261 264 271 271 268 266 259 263 273 267 261 259 259 258 253 246 246 242 240 247 253 232 236 248 257 261 277 282 270 269 275 274 270 266 267 269 268
262 265 269 273 270 266 263 270 270 269 259 257 259 258 260 263 265 270 275 276 269 259 245 234 240 246 255 266 271 273 272 273 274 276 275 272 267 264
264 271 275 275 270 261 260 262 256 250 249 252 257 261 266 270 274 278 288 281 288 278 260 249 243 243 250 257 265 267 278 276 267 272 275 273 269 264
265 266 267 266 262 264 259 247 246 249 249 253 261 265 269 264 263 262 263 267 277 282 275 268 260 253 257 261 261 265 268 270 271 277 283 281 276 266
266 259 257 260 255 255 255 254 253 251 255 253 248 251 250 252 261 265 251 253 258 264 274 269 267 273 269 265 261 259 267 273 274 280 282 282 278 268
261 254 251 251 253 253 254 258 256 251 252 249 244 240 241 245 252 254 248 244 247 253 262 268 270 279 275 264 246 257 263 272 278 278 276 279 281 281
253 253 251 251 253 250 251 256 260 257 253 246 245 240 241 244 245 248 249 250 250 253 258 254 249 254 265 276 262 240 263 277 281 278 272 272 276 283
249 251 251 252 253 250 249 252 255 253 245 244 244 238 233 234 237 243 246 247 251 255 259 256 249 255 265 276 282 274 261 267 271 274 283 291 287 285
252 249 249 249 250 251 251 247 245 246 244 240 238 233 229 228 236 243 247 241 245 247 253 263 269 280 287 279 272 278 281 275 277 273 279 284 293 288
256 252 250 249 248 248 250 250 246 243 240 238 236 233 231 230 230 239 243 239 241 250 267 279 283 279 277 266 274 286 301 315 312 297 282 272 272 268
255 253 252 250 247 244 241 239 243 246 243 239 234 229 228 230 232 237 240 241 242 248 265 275 282 287 285 280 284 291 301 310 321 330 328 324 299 281